Location: Bidwell Hollow
(37.7387°N, 90.1707°W)
Time: 02:02:57
(UTC+00:00)

Vanguard 3 - Pass Details

Date: 13 May 2026
Orbit: 507 x 3204 km, 33.3° (Epoch: 6 June)

Event Time Altitude Azimuth Distance (km) Brightness Sun altitude
Rises 19:03:19 0° 228° (SW) 6,466 12.1 66.0°
Reaches altitude 10° 19:07:24 10° 224° (SW) 5,693 12.0 65.4°
Maximum altitude 19:25:15 55° 153° (SSE) 3,632 11.4 62.8°
Drops below altitude 10° 19:42:24 10° 83° (E) 5,514 11.2 60.1°
Sets 19:46:14 0° 79° (E) 6,262 11.4 59.4°
